Погода в Оленеке

Погода в Оленеке : погода сейчас, прогноз погоды и архив. Всё, что Вы хотите узнать о погоде в Оленеке!

Хотите узнать прогноз погоды в Оленеке? Тогда Вам сюда: Погода в Оленеке

Поиск расширенной информации на нашем сайте:

Другие новости

Новости СМИ2

Главная страница сайта

Новости сайта

03.07.2017

Напоминаем, что на нашем специализированном сайте Метеоцентр.Азия вы можете получить высокодетализированные автоматические прогнозы погоды по пунктам России, СНГ и мира в авиационном формате (включающие направление и скорость ветра, видимость, явления погоды, количество и форму облачности, нижнюю и верхнюю границу облачности).


Погода в Оленеке - сегодня

Время (UTC), дата Ветер
(°,м/с) 
Видим.   Явления Облачность Т
(°С)
Тd
(°С)
f(%) Тe
(°С)
Pmin
(гПа)
dP
(гПа)
Po
(мм)
O2
(г/м3)
Тmin Tmax R s Состояние
почвы
18 19.11.17 тихо ()   н/о    н/о 
-28 -31.2 74 -28  1024.8  -0.4  746  337           
21 19.11.17 тихо ()   н/о    н/о 
-27 -30.1 75 -27  1024  -0.7  745  335           
00 20.11.17 310 (СЗ) 4000 м  слаб. снег  10/0 средняя 
[As op]
-25.4 -28.5 75 -29  1022.8  -0.9  744  332  -29.2    0.2  29  равномерный
сухой снег
100% 
03 20.11.17 290 (З) 20000 м  {снег}  10/0 верхняя 
[Cs]
-24.6 -27.7 75 -28  1021.4  -1.3  743  331           
06 20.11.17 280 (З) 10 км  слаб. снег  10/0 средняя, верхняя 
[Ac As|Cs]
-23 -26.3 74 -26  1020.1  -1.1  743  328           
09 20.11.17 280 (З) 4000 м  слаб. снег  10/0 средняя 
[As op]
-22.2 -24.7 80 -27  1019  -0.9  742  327           
12 20.11.17 280 (З) н/о    н/о 
-20.7 -23.2 80 -26  1017.1  -1.7  741  325    -20.7       
15 20.11.17 280 (З) н/о    н/о 
-19 -21.3 82 -23  1015.8  -1.1  740  322           
18 20.11.17 300 (СЗ) н/о    н/о 
-16.9 -19.4 81 -21  1014.9  -0.6  739  319           
21 20.11.17 320 (СЗ) н/о    н/о 
-16.6 -19.8 76 -22  1015.1  0.2  740  319           
00 21.11.17 290 (З) 20000 м  слаб. снег  10/0 средняя 
[As op]
-17 -20.4 75 -23  1015.5  0.3  740  319  -19    0.9  29  равномерный
сухой снег
100% 
03 21.11.17 290 (З) 10 км  слаб. снег  10/0 средняя 
[As op]
-16.1 -18.7 80 -18  1016  0.6  740  318           
06 21.11.17 310 (СЗ) 10 км  слаб. снег  10/0 средняя 
[As op]
-14.7 -18.1 75 -18  1017.3  1.4  741  317           
09 21.11.17 320 (СЗ) 10 км  слаб. снег  10/4 1000 м средняя, верхняя 
[Sc|Ac trans|Cs]
-15.7 -19.1 75 -19  1019.1  1.6  742  319           
12 21.11.17 340 (С) 5{11}  н/о    н/о 
-16.1 -19.6 74 -22  1020.4  1.2  743  320    -14.5       
15 21.11.17 330 (СЗ) н/о    н/о 
-16.3 -19.7 75 -21  1022.1  1.6  745  321           
18 21.11.17 330 (СЗ) н/о    н/о 
-16.1 -19.5 75 -21  1023.1  745  321           
21 21.11.17 340 (С) н/о    н/о 
-15.5 -19 74 -21  1024.3  1.2  746  320           
00 22.11.17 340 (С) 3{10}  20000 м  позёмок  4/0 средняя 
[Ac trans]
-18.5 -21.8 75 -23  1026.8  2.1  748  325  -18.5    0.4  29  равномерный
сухой снег
100% 
03 22.11.17 320 (СЗ) 20000 м    4/0 верхняя 
[Ci fib]
-20.7 -24 75 -24  1028.6  1.4  749  328  -20.7         
06 22.11.17 350 (С) 20000 м    3/0 верхняя 
[Ci fib]
-23.3 -27.2 70 -26  1031.2  2.2  751  332           
09 22.11.17 340 (С) 20000 м    3/0 верхняя 
[Ci fib]
-25.8 -29.7 70 -29  1033.6  2.1  752  337           
12 22.11.17 350 (С) н/о    н/о 
-27 -31 69 -34  1035  1.2  753  339    -18.5       
15 22.11.17 340 (С) н/о    н/о 
-28 -31.8 70 -32  1036  0.8  754  340           
18 22.11.17 310 (СЗ) н/о    н/о 
-29.2 -32.7 72 -33  1037.2  1.1  754  342           
Время (UTC), дата Ветер
(°,м/с) 
Видим.   Явления Облачность Т
(°С)
Тd
(°С)
f(%) Тe
(°С)
Pmin
(гПа)
dP
(гПа)
Po
(мм)
O2
(г/м3)
Тmin Tmax R s Состояние
почвы

Для получения пояснительной информации подведите курсор к названию столбца.

ПОГОДА в Оленеке - архив

Всё, что Вы хотите узнать о погоде в Оленеке - удобно и подробно!

Выберите нужную дату (начиная с 1 января 2015* года) и нажмите кнопку "Найти".
Будут отображены архивные сводки погоды по пункту Оленек, начиная с указанной даты.


Отображать данные в формате CSV (для использования в таблицах Excel)


Внимание! Наш архив погоды предназначен исключительно для личного некоммерческого использования в познавательных целях. Если Вам необходимы официальные справки о состоянии погоды (для производственных, юридических, коммерческих и т.п. целей), обращайтесь в органы Росгидромета.

*Примечание: данная дата относится к архиву по метеостанциям СССР (Россия, СНГ, Балтия).
Архив по метеостанциям Зарубежной Европы и Азии (кроме Китая) хранится 10 дней, по другим регионам земного шара (Китай, Африка, Америка, Австралия, Океания) - 1 день.

Оленек - район местоположения метеостанции


Название, широта, долгота, высота метеостанции:
Оленек 68.5°ш. 112.4°д. 220 м над ур. моря [Российская Федерация]

Дополнительная информация

В oтличие oт бoльшинства пoгoдных сайтoв мы публикуем пoдрoбную метеoинфoрмацию в детальнoм прoфессиoнальнoм фoрмате.

Характеристики температуры и влажнoсти вoздуха измеряются на высoте 2 м в тени вдали oт зданий и деревьев.
Скoрoсть ветра измеряется на высoте 10 м (на урoвне рoста челoвека скoрoсть ветра ниже в 1.5-2 раза). Если метеoстанция нахoдится в гoрoде или в лесу, тo скoрoсть ветра занижена на 2-4 м/с пo сравнению с oткрытым местoм. Скoрoсть ветра над акватoриями крупных рек и oзёр, а также на вершинах хoлмoв на 2-5 м/с выше, чем в oбычных услoвиях.
Атмoсфернoе давление в разных тoчках местнoсти мoжет значительнo oтличаться oт давления на метеoстанции, в зависимoсти oт услoвий рельефа (при пoдъёме на 10 м давление пoнижается примернo на 1 мм рт.ст.).